{"data":{"norad_id":60373,"intl_designator":"2024-138U","name":"STARLINK-32223","alt_names":[],"object_type":"PAYLOAD","status":"ACTIVE","operator":null,"country":"US","launch_date":"2024-08-04","launch_site_code":"AFWTR","launch_vehicle":null,"mission":null,"orbit_class":"UNKNOWN","rcs_meters":null,"size_class":null,"mass_kg":null,"dimensions":null,"purposes":["comms"],"wikipedia_slug":null,"has_3d_model":false,"image_url":null,"decayed_at":null,"tle_current":{"epoch":"2026-05-24T21:26:18.411360Z","epoch_age_seconds":78210,"freshness":"FRESH","line1":"1 60373U 24138U   26144.89326865  .00001297  00000+0  55917-4 0  9990","line2":"2 60373  53.1608 315.7150 0000888 103.1326 256.9774 15.30194740102193","mean_motion":15.3019474,"eccentricity":8.88e-5,"inclination_deg":53.1608,"raan_deg":315.715,"arg_perigee_deg":103.1326,"mean_anomaly_deg":256.9774,"bstar":5.5917e-5,"rev_number":10219,"period_min":94.105669190838,"perigee_km":474.62219581778,"apogee_km":475.8393539346,"semimajor_km":6853.3677748762,"source":"CELESTRAK","updated_at":"2026-05-25T13:38:19.241830Z"}}}